Location: Dugenta
(41.1333°N, 14.4500°E)
Time: 14:17:55
(UTC+00:00)

Cosmos 864 Rocket - Pass Details

Date: 03 March 2021
Orbit: 954 x 991 km, 82.9° (Epoch: 20 April)

Event Time Altitude Azimuth Distance (km) Brightness Sun altitude
Rises 19:02:54 0° 189° (S) 3,618 7.4 -24.6°
Reaches altitude 10° 19:05:22 10° 191° (S) 2,680 6.8 -25.1°
Maximum altitude 19:11:30 78° 277° (W) 986 4.5 -26.2°
Drops below altitude 10° 19:17:45 10° 5° (N) 2,719 6.9 -27.3°
Sets 19:20:17 0° 7° (N) 3,676 7.6 -27.8°
